Time,TemperatureF,DewpointF,PressureIn,WindDirection,WindDirectionDegrees,WindSpeedMPH,WindSpeedGustMPH,Humidity,HourlyPrecipIn,Conditions,Clouds,dailyrainin,SolarRadiationWatts/m^2,SoftwareType,DateUTC
2013-09-20 00:00:00,62.0,39.0,-100.00,North,349,4.0,-999.0,44,0.00,,,-99.99,-0.900000,,2013-09-20 07:00:00,
2013-09-20 00:42:00,62.0,39.0,-100.00,North,349,4.0,-999.0,44,0.00,,,-99.99,-0.900000,,2013-09-20 07:42:00,
2013-09-20 00:53:00,62.0,39.0,-100.00,North,349,4.0,-999.0,44,0.00,,,-99.99,-0.900000,,2013-09-20 07:53:00,
2013-09-20 02:00:00,55.0,39.0,29.79,West,273,1.0,-999.0,55,0.00,,,-99.99,-1.400000,,2013-09-20 09:00:00,
2013-09-20 02:53:00,55.0,39.0,29.79,West,273,1.0,-999.0,55,0.00,,,-99.99,-1.400000,,2013-09-20 09:53:00,
2013-09-20 03:00:00,60.0,38.0,29.78,North,358,3.0,-999.0,42,0.00,,,-99.99,-0.400000,,2013-09-20 10:00:00,
2013-09-20 03:42:00,60.0,38.0,29.78,North,358,3.0,-999.0,42,0.00,,,-99.99,-0.400000,,2013-09-20 10:42:00,
2013-09-20 03:53:00,60.0,38.0,29.78,North,358,3.0,-999.0,42,0.00,,,-99.99,-0.400000,,2013-09-20 10:53:00,
2013-09-20 04:00:00,59.0,37.0,29.76,NNW,341,2.0,-999.0,43,0.00,,,-99.99,-2.900000,,2013-09-20 11:00:00,
2013-09-20 04:42:00,59.0,37.0,29.76,NNW,341,2.0,-999.0,43,0.00,,,-99.99,-2.900000,,2013-09-20 11:42:00,
2013-09-20 04:52:00,59.0,37.0,29.76,NNW,341,2.0,-999.0,43,0.00,,,-99.99,-2.900000,,2013-09-20 11:52:00,
2013-09-20 05:00:00,58.0,35.0,29.75,North,6,4.0,-999.0,41,0.00,,,-99.99,-2.800000,,2013-09-20 12:00:00,
2013-09-20 05:43:00,58.0,35.0,29.75,North,6,4.0,-999.0,41,0.00,,,-99.99,-2.800000,,2013-09-20 12:43:00,
2013-09-20 05:52:00,58.0,35.0,29.75,North,6,4.0,-999.0,41,0.00,,,-99.99,-2.800000,,2013-09-20 12:52:00,
2013-09-20 06:00:00,58.0,33.0,29.75,NNE,16,5.0,-999.0,40,0.00,,,-99.99,-2.800000,,2013-09-20 13:00:00,
2013-09-20 06:42:00,58.0,33.0,29.75,NNE,16,5.0,-999.0,40,0.00,,,-99.99,-2.800000,,2013-09-20 13:42:00,
2013-09-20 06:52:00,58.0,33.0,29.75,NNE,16,5.0,-999.0,40,0.00,,,-99.99,-2.800000,,2013-09-20 13:52:00,
2013-09-20 09:00:00,66.0,34.0,29.78,NNE,29,3.0,-999.0,30,0.00,,,-99.99,142.100006,,2013-09-20 16:00:00,
2013-09-20 09:42:00,66.0,34.0,29.78,NNE,29,3.0,-999.0,30,0.00,,,-99.99,142.100006,,2013-09-20 16:42:00,
2013-09-20 09:53:00,66.0,34.0,29.78,NNE,29,3.0,-999.0,30,0.00,,,-99.99,142.100006,,2013-09-20 16:53:00,
2013-09-20 10:00:00,76.0,35.0,29.79,East,93,1.0,-999.0,22,0.00,,,-99.99,463.700012,,2013-09-20 17:00:00,
2013-09-20 10:42:00,76.0,35.0,29.79,East,93,1.0,-999.0,22,0.00,,,-99.99,463.700012,,2013-09-20 17:42:00,
2013-09-20 10:53:00,76.0,35.0,29.79,East,93,1.0,-999.0,22,0.00,,,-99.99,463.700012,,2013-09-20 17:53:00,
2013-09-20 11:00:00,79.0,31.0,29.81,WSW,244,3.0,-999.0,17,0.00,,,-99.99,617.000000,,2013-09-20 18:00:00,
2013-09-20 11:42:00,79.0,31.0,29.81,WSW,244,3.0,-999.0,17,0.00,,,-99.99,617.000000,,2013-09-20 18:42:00,
2013-09-20 11:52:00,79.0,31.0,29.81,WSW,244,3.0,-999.0,17,0.00,,,-99.99,617.000000,,2013-09-20 18:52:00,
2013-09-20 16:00:00,78.0,43.0,29.79,SW,228,3.0,-999.0,28,0.00,,,-99.99,598.200012,,2013-09-20 23:00:00,
2013-09-20 16:42:00,78.0,43.0,29.79,SW,228,3.0,-999.0,28,0.00,,,-99.99,598.200012,,2013-09-20 23:42:00,
2013-09-20 16:53:00,78.0,43.0,29.79,SW,228,3.0,-999.0,28,0.00,,,-99.99,598.200012,,2013-09-20 23:53:00,
2013-09-20 17:00:00,75.0,44.0,29.79,WSW,256,2.0,-999.0,33,0.00,,,-99.99,232.300003,,2013-09-21 00:00:00,
2013-09-20 17:42:00,75.0,44.0,29.79,WSW,256,2.0,-999.0,33,0.00,,,-99.99,232.300003,,2013-09-21 00:42:00,
2013-09-20 17:52:00,75.0,44.0,29.79,WSW,256,2.0,-999.0,33,0.00,,,-99.99,232.300003,,2013-09-21 00:52:00,
2013-09-20 18:00:00,72.0,45.0,29.79,East,92,1.0,-999.0,38,0.00,,,-99.99,86.500000,,2013-09-21 01:00:00,
2013-09-20 18:42:00,72.0,45.0,29.79,East,92,1.0,-999.0,38,0.00,,,-99.99,86.500000,,2013-09-21 01:42:00,
2013-09-20 18:52:00,72.0,45.0,29.79,East,92,1.0,-999.0,38,0.00,,,-99.99,86.500000,,2013-09-21 01:52:00,
2013-09-20 19:00:00,69.0,51.0,29.79,South,188,2.0,-999.0,53,0.00,,,-99.99,27.299999,,2013-09-21 02:00:00,
2013-09-20 19:42:00,69.0,51.0,29.79,South,188,2.0,-999.0,53,0.00,,,-99.99,27.299999,,2013-09-21 02:42:00,
2013-09-20 19:52:00,69.0,51.0,29.79,South,188,2.0,-999.0,53,0.00,,,-99.99,27.299999,,2013-09-21 02:52:00,
2013-09-20 20:00:00,65.0,54.0,29.80,SW,217,1.0,-999.0,66,0.00,,,-99.99,-2.800000,,2013-09-21 03:00:00,
2013-09-20 20:44:00,65.0,54.0,29.80,SW,217,1.0,-999.0,66,0.00,,,-99.99,-2.800000,,2013-09-21 03:44:00,
2013-09-20 20:55:00,65.0,54.0,29.80,SW,217,1.0,-999.0,66,0.00,,,-99.99,-2.800000,,2013-09-21 03:55:00,
2013-09-20 21:00:00,63.0,55.0,29.82,WSW,255,1.0,-999.0,77,0.00,,,-99.99,-2.800000,,2013-09-21 04:00:00,
2013-09-20 21:43:00,63.0,55.0,29.82,WSW,255,1.0,-999.0,77,0.00,,,-99.99,-2.800000,,2013-09-21 04:43:00,
2013-09-20 21:54:00,63.0,55.0,29.82,WSW,255,1.0,-999.0,77,0.00,,,-99.99,-2.800000,,2013-09-21 04:54:00,
2013-09-20 22:00:00,61.0,55.0,29.83,WSW,257,1.0,-999.0,81,0.00,,,-99.99,-1.400000,,2013-09-21 05:00:00,
2013-09-20 22:43:00,61.0,55.0,29.83,WSW,257,1.0,-999.0,81,0.00,,,-99.99,-1.400000,,2013-09-21 05:43:00,
2013-09-20 22:52:00,61.0,55.0,29.83,WSW,257,1.0,-999.0,81,0.00,,,-99.99,-1.400000,,2013-09-21 05:52:00,